Home > Weather > Kirkland Lake > Past weeks

Flag for Canada Past Weather in Kirkland Lake, Ontario, Canada — Yesterday and Last 2 Weeks

Now
73 °F

More clouds than sun.


Feels Like: 76 °F
Forecast: N/A
Wind: 8 mph from North

Location: Earlton

Current Time: Jul 23, 2016 at 5:12:06 PM

Latest Report: Jul 23, 2016 at 4:00 PM


Visibility: 9 mi

Pressure: 29.97 "Hg

Humidity: 65%

Dew Point: 61 °F

Location of Kirkland LakeLocation

Past Weather in Kirkland Lake — Graph

°F

Kirkland Lake Temperature Yesterday

Maximum temperature yesterday: 82 °F (at 3:00 PM)
Minimum temperature yesterday: 64 °F (at 11:00 PM)
Average temperature yesterday: 71 °F

High & Low Weather Summary for the Past Weeks

 TemperatureHumidityPressure
High88 °F (Jul 13, 3:00 PM)100% (Jul 9, 2:57 AM)30.23 "Hg (Jul 9, 2:57 AM)
Low43 °F (Jul 16, 4:00 AM)35% (Jul 13, 3:00 PM)29.49 "Hg (Jul 14, 2:58 PM)
Average67 °F74%29.89 "Hg
* Reported Jul 8 3:00 PM — Jul 23 3:00 PM, Kirkland Lake, Weather by CustomWeather, © 2016

Note: Actual official high and low records may vary slightly from our data, if they occured in-between our weather recording intervals... More about our weather records

Advertising

Kirkland Lake Weather History for the Previous 24 Hours

Scroll right to see more
 ConditionsComfort  
Time TempWeatherWind HumidityBarometerVisibility
3:00 PM
Sat, Jul 23
75 °FPartly sunny.9 mph57%29.96 "Hg9 mi
2:00 PM75 °FScattered clouds.9 mph57%29.96 "Hg9 mi
1:00 PM73 °FPassing clouds.10 mph61%29.96 "Hg9 mi
12:00 PM73 °FScattered clouds.15 mph65%29.95 "Hg9 mi
11:00 AM72 °FSunny.16 mph65%29.95 "Hg9 mi
10:00 AM68 °FBroken clouds.16 mph78%29.94 "Hg9 mi
9:00 AM66 °FPartly sunny.14 mph88%29.92 "Hg9 mi
8:00 AM66 °FBroken clouds.9 mph88%29.90 "Hg9 mi
7:00 AM64 °FMostly cloudy.10 mph94%29.88 "Hg9 mi
6:45 AM64 °FMostly cloudy.10 mph94%29.87 "Hg9 mi
6:00 AM64 °FLow clouds.10 mph94%29.87 "Hg9 mi
5:00 AM63 °FClear.9 mph94%29.86 "Hg9 mi
4:00 AM64 °FClear.9 mph94%29.84 "Hg9 mi
3:00 AM64 °FClear.10 mph94%29.83 "Hg9 mi
2:00 AM64 °FClear.9 mph94%29.81 "Hg9 mi
1:00 AM64 °FPassing clouds.9 mph94%29.82 "Hg9 mi
12:00 AM64 °FClear.7 mph94%29.81 "Hg9 mi
11:00 PM
Fri, Jul 22
64 °FPassing clouds.5 mph94%29.81 "Hg9 mi
10:00 PM66 °FPartly sunny.5 mph88%29.81 "Hg9 mi
9:00 PM66 °FSunny.6 mph88%29.79 "Hg9 mi
8:00 PM70 °FPassing clouds.5 mph83%29.78 "Hg9 mi
7:00 PM72 °FPartly sunny.8 mph78%29.77 "Hg9 mi
6:00 PM68 °FScattered clouds.5 mph88%29.77 "Hg9 mi
5:52 PM68 °FScattered clouds.7 mph88%29.78 "Hg9 mi
5:04 PM66 °FStrong thunderstorms. Fog.22 mph88%29.83 "Hg5 mi
5:00 PM68 °FThunderstorms. More clouds than sun.N/A83%29.82 "Hg9 mi
Weather by CustomWeather, © 2016

See weather overviewHow to use our weather pages